GFSSGP_850_spd_162.txt.gz
Wind_Speed
12 6 1 2 4 5 2 2 2 3 3 6 12 15 9 7 2 4 8 7 6 5 4 4 4 4 4 4 5 6 6 6 6 7 10 6 3 2 1 1 2 2 4 3 5 5 6 4 2
12 3 1 2 5 4 2 2 6 3 14 24 19 13 7 3 5 10 8 6 5 4 4 6 4 4 4 4 4 5 5 6 7 6 5 6 3 1 3 5 7 8 5 1 4 5 6 5 3
8 4 3 4 3 5 6 5 7 8 22 11 6 9 5 4 6 6 5 10 7 6 6 5 3 3 4 3 4 4 4 4 5 5 5 5 3 3 2 3 4 6 4 0 3 4 5 3 4
7 3 4 4 2 1 8 7 9 9 10 8 17 7 6 3 5 4 9 10 9 8 5 3 3 3 3 3 3 3 3 3 4 6 5 5 5 3 2 4 2 1 2 1 4 5 6 6 3
4 3 4 3 2 2 2 12 16 5 6 13 7 4 5 6 5 7 11 10 7 6 5 5 4 4 4 3 2 2 2 3 2 5 6 5 3 3 4 5 6 4 3 1 1 4 5 6 5
3 3 4 2 2 2 2 16 16 6 10 11 11 8 4 7 5 10 11 8 5 2 3 5 6 6 5 4 3 2 1 1 1 3 5 5 4 5 6 5 4 5 3 2 3 3 4 5 6
4 4 5 3 6 1 4 12 12 13 13 5 16 4 8 11 7 11 10 8 5 3 1 2 5 7 7 6 5 4 3 3 2 2 4 6 6 5 5 6 6 8 7 6 5 6 6 6 7
3 4 5 3 6 5 3 4 11 17 4 12 14 7 6 16 14 12 10 7 4 2 1 3 2 3 5 7 7 7 6 5 5 4 4 5 7 7 7 7 8 9 9 8 8 8 8 8 9
3 4 2 5 7 5 9 5 5 5 11 5 9 10 12 17 15 13 12 11 8 4 2 3 4 5 5 6 8 8 6 6 7 7 7 7 7 8 9 8 7 7 8 9 10 10 10 10 10
4 3 5 2 3 6 10 9 12 7 9 6 11 13 17 15 14 12 10 9 7 6 5 5 5 6 8 9 9 8 9 7 8 9 10 10 10 10 10 11 10 8 8 10 12 12 12 13 12
3 4 2 2 5 9 14 11 8 18 2 11 20 19 17 15 10 7 5 8 9 5 7 8 8 8 9 10 11 10 10 10 9 9 9 10 10 11 10 11 11 11 12 13 13 12 12 12 13
2 2 1 2 6 3 4 10 7 13 5 7 15 19 19 16 12 9 10 8 7 6 7 9 12 12 11 10 12 13 13 12 11 11 11 11 12 10 13 14 12 13 13 13 12 12 12 13 13
3 1 1 2 2 6 2 4 2 9 11 10 16 19 17 14 11 11 9 10 12 12 11 10 11 13 13 13 12 14 14 13 12 12 12 12 13 14 14 16 16 16 15 15 14 14 14 14 14
2 2 0 1 1 5 3 2 2 10 10 12 14 14 12 10 8 10 11 14 13 12 11 11 10 9 12 14 14 14 14 13 15 14 12 15 15 16 15 16 17 17 16 16 17 17 17 17 17
3 3 4 2 3 1 4 7 6 6 11 8 11 13 11 8 7 8 9 14 15 12 12 13 15 13 12 14 16 16 16 16 16 15 16 15 13 17 18 18 18 18 17 18 19 20 20 20 19
3 5 1 3 5 2 5 8 4 10 17 19 12 12 10 9 10 11 15 16 17 17 17 16 15 15 14 15 18 18 19 19 18 16 16 18 18 15 16 17 19 19 20 20 20 20 21 20 20
3 3 5 6 9 4 4 6 6 4 3 14 24 18 12 11 7 9 10 11 14 20 20 17 16 17 17 18 18 18 18 20 19 17 17 18 18 17 18 16 16 18 19 20 20 21 22 20 21
5 3 4 5 4 4 4 9 8 14 14 13 11 14 15 13 10 12 11 12 16 19 19 18 19 20 21 23 22 20 19 19 20 21 16 18 19 18 18 16 17 18 19 20 22 24 23 23 23
5 3 4 3 3 5 6 7 10 24 24 21 20 18 16 14 14 14 14 14 15 16 17 18 19 22 22 21 20 19 18 18 18 18 16 15 18 18 19 21 17 19 17 19 20 20 21 22 21
0 1 3 1 1 2 4 10 11 16 18 27 31 30 23 16 17 16 15 15 14 13 13 14 13 13 13 12 13 13 14 14 11 12 15 17 17 16 17 20 18 18 19 20 20 20 19 19 19
4 5 2 1 2 2 4 8 5 7 21 24 23 25 24 25 22 18 15 12 8 8 8 9 10 10 10 8 7 8 10 10 11 12 13 14 13 13 16 17 18 19 19 19 19 19 19 20 20
6 6 5 3 3 3 3 5 5 5 6 3 13 16 14 20 21 17 13 8 6 5 7 7 7 7 6 5 6 11 12 13 12 12 12 13 14 15 17 17 15 14 14 15 15 14 13 13 15
4 4 6 4 2 3 1 1 7 3 6 3 7 17 19 20 19 16 9 6 3 5 4 3 4 4 4 3 5 12 12 12 13 13 12 12 13 12 9 8 8 8 9 10 10 11 11 11 11
4 5 5 4 3 3 8 7 5 3 4 3 8 17 21 19 15 11 8 4 3 1 1 1 2 3 3 3 3 6 10 11 12 13 13 11 9 8 6 6 6 7 8 9 10 10 10 10 10
3 5 2 3 1 6 1 4 6 6 3 7 15 22 20 17 14 11 6 3 1 1 1 2 2 3 3 3 3 4 7 9 10 10 9 8 7 6 6 6 6 7 9 10 10 10 9 8 7
7 5 5 7 5 3 2 6 5 5 7 5 19 24 20 17 13 10 4 3 2 3 1 2 3 3 4 4 4 5 7 8 9 9 9 7 7 6 6 6 7 8 8 8 8 8 7 6 5
5 5 5 4 3 2 4 5 8 2 5 9 16 19 16 13 12 7 4 3 5 3 2 3 4 5 5 6 7 8 9 10 9 9 8 8 6 5 5 6 7 8 8 7 7 6 5 5 4
5 7 2 2 2 4 3 3 4 2 4 3 8 16 14 12 10 8 6 5 5 5 6 6 7 8 9 10 11 12 12 11 11 10 9 9 7 5 6 7 7 7 7 6 5 5 4 4 3
4 3 3 4 4 3 1 4 5 2 3 8 13 15 14 11 9 9 6 8 10 9 9 9 9 11 13 14 14 14 14 13 13 12 11 9 8 8 7 8 7 7 6 5 4 4 3 2 2
3 5 6 4 4 3 3 4 1 0 4 14 15 13 11 9 7 9 10 10 13 13 13 13 14 14 15 16 16 17 17 16 14 13 12 11 10 9 8 7 6 5 4 4 3 2 1 2 5

GFSSGP_850_spd_165.txt.gz
Wind_Speed
12 7 1 1 4 5 1 1 1 2 2 3 7 9 8 6 2 2 10 8 3 4 7 6 5 4 3 3 4 5 5 5 5 7 5 4 2 1 2 2 1 1 2 1 4 5 5 2 1
12 4 1 3 5 3 3 2 6 3 15 22 14 10 6 2 3 7 8 8 5 6 6 6 4 4 3 2 3 4 4 5 6 6 6 3 1 2 3 4 4 4 2 1 2 3 4 2 1
8 3 1 4 4 4 5 3 5 14 20 5 5 8 4 4 5 6 5 9 8 6 8 6 4 3 3 2 2 3 3 3 4 4 4 3 1 3 3 4 3 3 2 3 1 3 4 2 1
7 1 5 4 2 3 5 7 6 11 4 3 12 6 5 3 3 4 7 9 7 7 7 3 3 3 2 2 1 2 2 2 3 3 3 2 3 1 3 5 3 4 6 4 1 1 3 2 2
4 3 4 4 1 1 2 12 16 6 7 8 4 4 5 4 4 5 8 8 7 6 5 3 3 3 3 3 1 1 1 1 1 4 4 3 2 3 4 6 5 5 5 3 2 1 3 3 4
3 3 4 2 0 2 2 9 10 5 9 9 7 8 5 7 6 8 9 8 6 3 4 4 4 5 4 4 4 2 1 1 0 3 4 4 4 5 5 6 6 5 6 6 3 3 4 5 7
4 3 5 5 3 1 4 9 7 9 9 5 14 5 6 11 9 9 9 7 6 4 2 1 3 5 5 5 5 5 4 3 2 2 4 5 5 5 5 5 6 7 7 7 7 6 6 7 7
3 4 4 3 6 6 7 7 9 13 4 14 8 5 5 15 13 12 10 7 6 4 3 1 1 2 4 6 7 7 6 6 6 5 5 6 6 7 7 7 6 8 9 9 8 9 8 8 7
1 4 1 4 6 4 12 5 10 8 14 8 10 5 3 16 16 14 12 10 8 7 4 3 2 3 4 5 6 8 8 8 8 7 7 7 7 8 9 8 8 7 7 8 9 10 11 11 11
3 3 7 3 2 2 6 13 17 9 12 5 11 8 15 17 16 15 13 10 8 7 5 4 4 4 5 6 7 6 10 10 8 9 10 10 10 10 11 11 11 10 9 9 10 11 12 13 12
2 4 3 1 2 5 5 6 9 13 3 14 23 21 21 18 16 13 10 8 5 4 7 8 7 7 8 7 8 8 8 10 9 9 9 9 10 10 11 10 11 11 10 11 11 12 12 12 12
2 1 2 2 4 1 4 4 4 10 3 16 18 21 22 19 16 13 11 10 9 9 9 10 13 13 11 10 10 9 10 10 10 10 10 11 11 11 10 11 12 12 12 13 13 12 12 12 12
2 2 0 1 3 5 2 3 2 4 5 12 21 22 21 18 14 11 9 10 9 9 9 12 12 12 12 13 13 11 11 13 12 12 12 11 11 12 13 14 14 15 14 14 14 15 14 14 13
2 1 1 2 2 4 2 1 3 5 5 10 22 23 20 17 14 12 12 13 11 11 12 13 12 11 11 14 15 14 12 12 13 14 13 13 12 14 14 15 16 17 17 16 16 16 16 17 17
4 2 4 2 1 1 2 5 5 4 7 9 14 19 19 17 14 11 13 14 13 13 13 14 14 14 13 14 16 18 17 16 16 15 15 15 15 13 13 16 17 17 18 19 19 19 19 19 19
4 4 1 2 3 1 4 6 4 5 9 13 11 15 17 15 13 13 15 16 14 14 16 17 16 15 15 14 16 19 20 20 19 18 18 17 17 17 17 16 16 16 19 20 21 21 22 21 21
4 3 4 6 7 2 3 5 5 2 3 9 13 17 17 14 11 13 12 13 13 14 18 20 20 18 17 16 17 19 21 22 22 20 20 21 21 19 19 19 19 18 18 19 20 21 22 21 21
6 4 4 5 3 4 4 9 7 9 11 14 11 9 20 15 14 13 12 11 12 14 17 19 20 20 20 21 21 22 22 23 22 22 22 20 21 18 21 20 19 18 19 20 21 20 22 25 26
5 3 4 3 4 4 6 8 9 21 18 21 24 17 13 14 15 14 13 14 13 15 17 18 19 20 23 23 20 19 20 20 20 20 19 19 18 18 21 18 21 21 19 21 21 23 24 22 23
1 3 4 1 1 5 3 10 10 14 14 25 28 28 22 18 18 16 15 15 15 15 16 16 17 18 15 12 11 12 13 14 13 13 12 13 17 18 18 19 18 19 19 20 21 22 21 21 21
2 3 2 0 3 2 5 7 6 6 16 23 28 30 27 27 22 19 18 16 15 14 13 13 11 10 10 9 8 6 6 7 9 8 11 13 15 16 15 16 18 19 19 20 21 20 19 20 21
4 6 4 3 3 3 2 5 6 4 7 5 9 19 21 24 24 20 19 16 13 11 9 8 7 7 6 4 4 4 6 8 10 11 13 13 13 15 17 19 19 18 16 15 15 15 14 14 15
5 5 5 2 1 2 1 1 7 4 6 6 2 9 13 18 21 21 16 12 10 7 5 4 4 5 5 4 3 6 9 11 12 14 15 15 14 15 15 13 12 12 11 12 12 12 12 12 13
6 6 6 4 2 3 7 7 5 4 4 1 3 9 15 18 19 17 13 10 6 4 2 2 2 3 4 4 3 5 9 12 13 13 14 15 14 12 11 10 10 10 11 11 11 12 13 13 13
4 6 1 2 2 6 1 2 7 7 5 5 11 18 19 19 17 14 11 7 5 4 3 0 2 3 4 4 4 5 7 10 13 14 14 13 11 10 10 10 10 10 11 11 12 12 12 12 12
5 6 5 7 4 4 3 6 5 2 5 6 13 19 18 16 13 11 6 5 5 4 2 2 3 3 5 6 6 7 8 10 10 11 11 11 11 10 10 10 9 9 10 11 12 12 12 11 10
5 6 5 5 2 2 3 6 9 2 6 10 13 18 15 11 9 8 4 4 4 4 2 0 3 4 6 8 9 10 10 10 11 12 12 12 11 11 10 9 8 9 10 11 12 11 10 9 8
5 7 2 2 1 4 3 5 4 2 3 4 6 14 12 9 8 7 5 4 5 5 5 6 7 8 10 11 12 12 12 13 13 13 12 12 11 10 10 9 9 10 11 11 11 10 9 7 6
4 4 3 5 4 4 1 5 5 4 2 8 11 12 9 5 4 6 5 4 7 8 9 9 11 12 13 14 14 15 15 15 14 14 13 12 11 11 10 10 9 9 9 9 9 9 8 7 6
4 5 5 4 4 3 2 5 3 5 5 9 11 8 4 2 2 4 7 9 11 12 14 17 16 16 16 16 16 16 16 16 15 15 14 13 12 12 10 9 8 8 8 8 8 8 8 7 6

GFSSGP_850_spd_168.txt.gz
Wind_Speed
11 5 1 2 4 5 1 2 0 3 1 1 6 3 5 4 3 3 14 10 7 7 7 6 5 3 2 4 5 5 5 5 5 6 4 4 3 3 3 2 2 3 3 4 1 1 0 3 5
9 3 3 3 5 3 3 3 5 3 11 17 11 6 4 2 3 8 10 10 9 7 7 6 4 3 2 3 4 5 5 5 6 8 4 1 2 4 6 6 6 5 5 5 2 1 1 1 3
8 2 2 4 4 4 4 4 4 10 12 2 4 6 3 3 4 8 7 10 10 7 7 6 4 2 2 2 3 4 4 4 4 3 2 1 2 5 7 6 2 2 4 5 2 1 1 1 1
7 1 6 4 3 1 4 6 6 12 2 1 9 6 4 2 3 4 8 9 9 9 9 5 4 2 1 1 2 3 4 3 2 2 2 3 1 2 4 5 4 4 6 4 3 1 2 1 1
4 3 4 4 1 1 2 10 20 7 5 6 4 4 3 4 3 5 8 9 8 8 6 4 2 1 1 1 1 1 2 3 1 1 1 0 1 2 3 5 5 5 5 5 4 2 1 3 4
3 3 4 3 2 0 3 14 11 6 8 8 6 8 4 6 5 8 9 10 8 4 2 2 1 1 2 2 2 2 2 1 2 1 2 2 2 3 4 5 5 6 7 7 4 4 3 5 6
5 4 4 5 4 3 5 15 9 9 10 6 13 6 4 9 8 8 9 8 6 4 2 0 1 2 2 3 4 4 4 3 2 2 2 4 4 4 5 4 6 6 6 6 6 6 5 6 6
3 5 3 1 4 4 6 11 8 14 6 13 10 6 4 13 11 10 9 7 5 3 2 0 1 1 2 3 5 6 6 5 5 4 4 4 5 6 6 6 7 7 8 7 7 7 8 8 7
2 4 2 4 5 3 7 3 8 7 13 9 12 7 8 16 14 12 10 9 7 5 3 1 0 2 3 4 5 6 8 8 7 7 6 6 6 7 8 8 8 8 7 7 8 8 10 11 10
4 3 7 4 3 2 2 3 12 6 10 5 12 11 12 19 17 14 11 9 7 4 3 2 2 3 3 5 6 6 6 8 10 9 9 8 9 9 10 10 10 10 10 10 10 11 12 12 11
2 4 3 1 1 2 2 2 8 8 3 11 24 19 20 22 18 15 11 8 4 3 5 5 6 6 7 7 7 7 7 7 8 9 9 9 9 9 9 10 9 10 10 10 11 11 11 11 12
2 1 1 1 3 2 2 1 4 12 5 12 16 19 25 24 20 16 13 10 7 7 7 9 9 11 11 11 11 9 9 8 8 10 11 12 10 10 10 10 10 11 10 11 11 12 11 11 11
2 2 1 2 3 3 2 2 2 7 5 9 17 23 24 21 18 14 11 10 10 10 8 10 12 13 12 13 14 13 11 10 9 10 12 13 12 10 11 12 13 12 13 13 13 13 13 13 12
2 2 1 0 1 1 1 1 0 4 3 10 19 23 21 20 17 14 13 10 11 10 11 12 11 11 12 12 13 15 15 13 12 13 13 13 12 11 13 14 14 15 15 16 16 16 16 15 15
3 2 3 2 2 0 2 3 5 4 6 9 17 20 19 16 15 14 13 14 13 13 12 13 11 11 12 12 13 16 18 17 17 16 17 16 15 16 15 14 15 15 16 19 18 18 18 18 17
4 4 2 2 2 1 4 7 1 8 8 9 13 16 18 17 17 15 14 15 15 13 12 14 14 15 15 14 13 14 17 20 21 20 19 20 19 19 19 17 17 17 18 18 19 19 19 19 19
4 4 4 6 7 2 3 5 6 7 9 14 16 16 19 18 17 17 15 15 16 15 14 15 17 18 18 17 17 17 18 20 22 22 21 21 22 22 20 21 19 20 19 20 19 19 20 20 21
5 3 2 3 1 1 1 9 7 7 6 9 9 13 18 20 19 17 14 14 13 13 13 14 16 19 20 20 20 21 21 22 22 22 22 21 21 21 21 20 18 20 20 21 21 21 21 20 22
6 4 3 3 3 2 6 7 10 21 15 19 19 17 13 23 21 19 16 14 13 12 13 15 17 19 20 20 21 22 22 21 20 20 19 17 17 15 18 17 20 19 18 19 20 21 22 22 22
3 3 2 1 2 3 5 10 11 11 14 25 29 28 24 18 22 21 18 15 13 12 13 14 15 16 17 15 13 13 13 13 14 13 11 11 10 11 16 18 18 19 17 18 19 19 19 19 20
3 5 3 2 4 2 6 7 6 5 13 22 28 30 28 27 25 23 20 16 13 13 12 12 12 11 10 9 8 7 5 4 5 7 7 10 11 13 14 15 16 17 20 21 20 21 21 20 20
3 5 3 2 3 3 3 5 6 5 8 6 10 15 27 27 28 24 19 15 13 11 10 10 8 7 5 4 3 2 2 4 6 10 10 10 11 14 16 19 21 19 16 14 13 13 13 13 14
6 4 6 2 3 2 1 2 7 3 7 7 4 3 7 17 23 24 18 15 12 10 8 6 4 2 2 1 2 3 6 8 10 12 13 15 15 16 17 16 14 13 12 12 11 11 12 12 13
7 6 7 4 3 2 6 6 4 4 4 4 2 4 7 13 19 19 16 13 11 9 6 3 1 1 2 2 1 3 5 8 10 12 13 14 15 15 14 13 12 11 11 11 11 12 13 14 14
3 6 3 3 1 5 2 3 8 8 6 5 5 7 11 15 17 16 13 10 8 6 6 4 2 1 2 2 3 4 6 8 10 12 13 13 13 12 12 11 11 11 11 11 11 12 13 14 14
4 5 5 6 4 4 2 5 5 3 5 4 5 13 14 15 13 12 10 7 7 7 5 4 3 2 3 4 5 6 8 9 11 12 13 12 12 12 12 11 11 11 10 10 11 12 13 14 14
5 4 4 5 2 2 4 6 8 2 5 6 12 15 13 12 10 9 6 5 6 7 6 4 2 2 5 7 7 8 10 11 12 12 12 12 12 13 12 11 10 10 10 10 11 11 12 12 11
5 8 2 2 2 4 4 5 5 3 1 2 6 11 12 9 9 8 3 3 7 8 5 4 5 6 7 10 11 12 12 13 13 13 13 13 13 13 12 11 10 10 10 10 10 9 9 9 9
4 3 3 4 4 4 1 5 5 2 4 6 10 12 10 8 6 3 2 2 3 5 6 7 10 11 11 13 14 14 15 15 14 14 14 14 14 13 12 12 11 10 10 9 9 9 8 8 8
1 5 5 4 4 3 2 5 3 4 2 12 15 13 8 5 4 3 2 3 6 8 11 13 15 16 16 16 16 16 16 16 16 15 15 15 14 13 13 12 11 10 9 8 8 8 7 7 7

GFSSGP_850_spd_171.txt.gz
Wind_Speed
7 4 6 4 4 4 1 2 0 3 2 2 6 5 4 4 1 2 16 12 10 10 9 9 7 5 5 6 7 6 5 6 5 6 4 4 4 4 4 4 5 6 6 6 4 3 2 4 6
5 4 6 4 4 3 2 2 5 3 8 16 10 6 4 3 4 10 13 11 11 10 8 7 7 6 5 6 7 7 7 7 9 6 2 3 5 8 10 9 10 8 7 7 5 3 2 3 4
4 3 3 4 3 3 4 4 5 9 10 5 5 5 4 3 6 10 10 11 13 11 9 7 7 6 5 5 6 7 6 6 7 4 2 3 6 8 8 6 4 4 6 5 3 4 2 2 3
3 3 6 4 3 3 3 5 8 13 2 3 10 6 5 5 5 6 11 12 12 10 10 7 6 5 4 4 5 5 6 4 4 4 4 6 3 2 5 6 5 6 7 6 5 6 2 1 3
3 3 4 4 1 2 2 9 23 6 6 6 5 5 6 5 6 8 11 12 12 12 9 7 6 4 3 3 3 3 4 4 3 2 3 3 3 1 3 4 5 6 7 5 5 2 0 3 4
4 3 4 3 3 1 0 10 11 6 7 8 7 10 6 8 9 11 12 12 11 7 6 6 5 4 3 2 1 2 2 2 3 1 0 1 1 0 2 2 3 4 5 6 5 3 2 3 4
6 3 4 4 5 2 5 13 10 8 8 6 10 6 7 11 11 12 12 11 10 8 6 5 4 3 2 1 1 2 2 2 2 1 1 2 3 3 3 3 4 4 3 3 3 4 4 4 5
4 5 4 3 4 4 6 13 7 10 6 6 10 5 6 16 14 14 13 11 9 7 6 5 5 4 2 1 1 3 4 4 4 3 3 3 4 4 4 4 5 5 5 5 5 5 5 6 6
3 4 3 6 6 3 9 5 7 6 9 8 9 6 8 18 18 15 13 11 9 7 5 4 4 3 2 1 2 3 4 5 5 6 6 5 5 6 7 6 7 6 6 6 6 7 8 9 9
4 4 7 3 3 2 5 4 13 7 10 7 13 10 13 19 18 16 14 11 8 6 4 3 2 1 0 1 2 3 4 3 5 7 8 8 8 8 8 8 8 8 8 7 8 9 10 10 9
3 4 5 3 3 2 3 5 10 9 3 13 23 19 17 22 20 17 14 11 8 7 4 2 3 4 4 4 5 4 4 4 4 4 6 6 9 7 7 7 8 8 7 8 9 9 10 10 9
3 4 5 4 3 4 3 5 6 12 6 14 14 17 19 24 22 19 15 13 10 6 5 5 6 7 8 9 9 8 7 6 6 5 6 8 10 8 8 7 8 9 9 10 10 10 9 11 11
2 4 5 5 3 3 4 4 5 11 11 9 15 19 22 24 21 17 13 12 11 7 8 9 10 10 10 12 11 12 11 9 8 8 8 8 8 7 7 9 9 10 11 11 12 12 12 12 12
3 4 4 4 3 1 4 4 4 6 11 11 15 21 24 24 20 17 16 13 12 10 11 11 10 9 9 9 10 12 13 13 12 12 12 12 11 11 12 11 11 12 12 13 15 15 15 14 13
5 2 2 4 4 3 2 3 6 7 8 11 17 21 24 22 20 18 16 14 13 13 13 12 10 8 8 9 10 12 14 15 15 15 14 14 16 15 15 15 15 14 15 15 15 17 17 16 15
4 4 2 2 3 2 5 8 4 10 12 11 16 20 21 21 21 19 17 15 14 15 14 13 12 12 12 13 13 13 13 14 16 17 18 17 19 18 19 19 17 18 17 17 17 16 17 16 16
5 4 4 7 3 1 3 7 3 10 11 12 14 18 18 19 19 19 18 17 16 16 15 14 14 14 15 15 16 16 16 17 17 18 19 19 20 21 22 22 21 18 17 18 17 17 18 18 17
6 3 2 3 3 3 1 9 4 3 5 9 15 17 17 19 20 20 19 18 17 17 16 15 14 14 15 15 16 18 19 21 21 21 21 20 19 19 19 19 18 17 17 18 20 18 19 19 19
7 4 2 2 2 1 4 7 13 17 15 17 16 17 18 19 23 23 20 17 17 16 14 13 13 14 15 15 17 18 19 18 18 17 17 16 14 13 13 13 16 18 17 17 18 18 19 19 19
4 4 2 2 2 3 3 11 12 11 13 24 28 27 24 21 21 26 22 19 17 15 13 13 13 14 13 14 14 12 12 12 10 8 7 6 5 7 10 14 14 16 16 16 17 19 18 18 18
2 5 3 3 2 1 5 7 5 4 9 20 26 25 25 28 25 26 25 20 17 14 13 12 11 10 10 8 8 7 6 4 1 1 3 6 8 8 10 11 13 14 16 19 21 18 16 15 15
4 5 5 2 2 3 3 5 6 4 7 5 13 11 18 26 26 26 25 21 17 13 11 9 8 6 4 3 2 2 1 1 3 5 7 8 9 10 12 18 19 19 15 11 11 10 10 9 10
5 5 5 2 3 3 2 1 7 4 5 3 7 4 6 13 24 27 23 20 16 12 9 7 5 3 2 2 2 3 3 3 6 8 9 11 12 13 15 16 13 12 10 9 9 8 9 9 10
8 6 6 4 2 2 4 4 5 3 2 4 4 4 3 7 15 23 21 17 12 10 8 5 4 4 4 2 1 1 2 4 6 8 9 10 11 12 12 11 10 10 9 9 8 9 9 9 10
2 5 3 3 2 5 1 2 9 7 5 4 9 2 4 9 16 19 18 15 12 9 7 7 6 5 4 3 1 2 3 4 6 8 10 10 11 11 10 10 10 10 9 9 8 8 9 10 11
4 5 4 6 3 3 1 5 5 2 3 5 2 9 12 14 15 15 14 13 11 10 10 9 7 5 4 3 3 4 5 6 8 9 10 11 11 11 11 11 10 9 9 8 8 10 10 10 10
6 4 4 6 2 2 3 6 8 2 3 6 8 13 14 14 14 13 10 9 10 12 12 9 7 3 2 4 5 6 7 9 10 11 11 12 12 12 12 11 11 10 9 9 9 10 9 9 9
4 7 3 2 1 4 4 4 5 2 2 2 5 11 12 11 11 11 7 8 11 11 8 6 4 3 4 6 8 9 11 11 12 12 12 13 13 13 13 12 11 10 10 10 10 9 8 7 7
4 3 3 4 3 4 1 5 5 4 4 6 11 12 12 11 10 8 7 7 9 9 7 6 6 7 10 12 11 12 13 13 14 14 14 14 14 14 13 12 11 11 10 10 9 8 7 7 6
2 6 5 4 4 3 2 5 2 6 7 10 12 12 11 11 10 7 5 5 5 6 7 8 10 12 13 14 14 14 15 15 15 15 15 15 14 13 13 12 12 11 10 9 8 7 6 5 5